Location: Akgöl Batakl???
(38.9482°N, 31.8837°E)
Time: 16:07:54
(UTC+00:00)

Meteor 2-1 Rocket - Pass Details

Date: 08 May 2026
Orbit: 825 x 909 km, 81.3° (Epoch: 10 June)

Event Time Altitude Azimuth Distance (km) Brightness Sun altitude
Rises 17:50:22 0° 175° (S) 3,466 7.0 -10.9°
Reaches altitude 10° 17:52:51 10° 171° (S) 2,520 6.3 -11.3°
Maximum altitude 17:58:25 56° 95° (E) 1,019 4.3 -12.2°
Drops below altitude 10° 18:03:55 10° 18° (NNE) 2,480 6.9 -13.1°
Sets 18:06:21 0° 14° (NNE) 3,409 7.6 -13.5°
